WB8SKP-WX Weather Reports


time (UTC)temp
C
wind
direction
speed
KPH
gust
KPH
rain 1hr
cm
rain 24hr
cm
rain mn
cm
humidity
%
barometer
mb
20260510231405 20 352 0.0 16.1 0.00 0.00 0.00 66 998.0
20260510225335 21 342 0.0 16.1 0.00 0.00 0.00 67 997.9
20260510223335 21 343 1.6 16.1 0.00 0.00 0.00 67 997.9
20260510221305 21 292 3.2 16.1 0.00 0.00 0.00 66 997.7
20260510215306 21 25 1.6 16.1 0.00 0.00 0.00 64 997.7
20260510213305 21 41 0.0 16.1 0.00 0.00 0.00 63 997.7
20260510212247 23 208 0.0 12.9 0.00 0.00 0.00 62 991.6
20260510212242 10 338 0.0 46.7 0.00 0.00 0.00 99 996.3
20260510211305 22 348 1.6 16.1 0.00 0.00 0.00 64 997.6
20260510205235 22 325 3.2 16.1 0.00 0.00 0.00 61 997.5
20260510203235 22 344 8.0 14.5 0.00 0.00 0.00 69 997.6
20260510201235 22 37 4.8 14.5 0.00 0.00 0.00 71 997.5
20260510195235 24 337 8.0 14.5 0.00 0.00 0.00 61 997.5
20260510193205 24 124 4.8 14.5 0.00 0.00 0.00 62 997.5
20260510191204 23 288 3.2 14.5 0.00 0.00 0.00 64 997.5
20260510185204 23 275 1.6 14.5 0.00 0.00 0.00 65 997.5
20260510183134 24 38 0.0 14.5 0.00 0.00 0.00 58 997.4
20260510181135 23 331 3.2 14.5 0.00 0.00 0.00 61 997.5
20260510175105 22 79 0.0 14.5 0.00 0.00 0.00 67 997.5
20260510173104 23 54 1.6 12.9 0.00 0.00 0.00 63 997.7
20260510171104 22 101 0.0 12.9 0.00 0.00 0.00 66 997.9
20260510165034 22 7 1.6 12.9 0.00 0.00 0.00 65 998.1
20260510163035 22 6 3.2 12.9 0.00 0.00 0.00 63 997.8
20260510161034 21 347 4.8 12.9 0.00 0.00 0.00 68 997.7
20260510155034 21 26 1.6 12.9 0.00 0.00 0.00 74 997.6
20260510153004 20 344 4.8 12.9 0.00 0.00 0.00 74 997.5
20260510151004 22 327 4.8 12.9 0.00 0.00 0.00 72 997.0
20260510145004 22 80 0.0 12.9 0.00 0.00 0.00 71 996.6
20260510142934 22 59 0.0 12.9 0.00 0.00 0.00 71 996.4
20260510140934 20 159 0.0 12.9 0.00 0.00 0.00 74 996.5
20260510134934 19 188 1.6 12.9 0.00 0.00 0.00 79 996.6
20260510132934 18 127 0.0 12.9 0.00 0.00 0.00 77 996.8
20260510130934 17 139 0.0 12.9 0.00 0.00 0.00 80 996.6
20260510124904 16 98 0.0 12.9 0.00 0.00 0.00 82 996.3
20260510122904 15 136 0.0 12.9 0.00 0.00 0.00 88 996.4
20260510120904 13 137 0.0 12.9 0.00 0.00 0.00 90 996.1
20260510114834 12 210 0.0 12.9 0.00 0.00 0.00 96 995.7
20260510112834 11 191 0.0 12.9 0.00 0.00 0.00 97 995.5
20260510110804 11 196 0.0 12.9 0.00 0.00 0.00 98 995.4
20260510104804 11 163 0.0 12.9 0.00 0.00 0.00 99 995.3
20260510102734 12 178 0.0 12.9 0.00 0.00 0.00 96 995.3
20260510100734 12 163 3.2 12.9 0.00 0.00 0.00 92 995.2
20260510094734 12 77 0.0 12.9 0.00 0.00 0.00 90 995.2
20260510092704 11 202 0.0 4.8 0.00 0.00 0.00 98 994.6
20260510090704 11 352 0.0 4.8 0.00 0.00 0.00 97 994.5
20260510084704 12 175 0.0 4.8 0.00 0.00 0.00 98 994.2
20260510082704 12 175 0.0 4.8 0.00 0.00 0.00 97 994.0
20260510080704 12 122 0.0 4.8 0.00 0.00 0.00 97 993.9
20260510074753 12 105 0.0 4.8 0.00 0.00 0.00 94 993.9
20260510074704 12 105 0.0 4.8 0.00 0.00 0.00 94 993.9
20260510072704 12 157 0.0 4.8 0.00 0.00 0.00 96 993.8
20260510070703 13 157 0.0 4.8 0.00 0.00 0.00 94 993.8
20260510064633 13 176 0.0 4.8 0.00 0.00 0.00 91 993.6
20260510062603 13 150 0.0 4.8 0.00 0.00 0.00 88 993.6
20260510060603 14 131 0.0 4.8 0.00 0.00 0.00 86 993.7
20260510054603 15 107 0.0 4.8 0.00 0.00 0.00 83 993.5
20260510052533 14 131 0.0 0.0 0.00 0.00 0.00 85 993.5
20260510050659 15 131 0.0 0.0 0.00 0.00 0.00 87 993.4
20260510050533 15 131 0.0 0.0 0.00 0.00 0.00 87 993.4
20260510044533 15 131 0.0 12.9 0.00 0.00 0.00 82 993.4
20260510042503 15 115 0.0 12.9 0.00 0.00 0.00 84 993.3
20260510040503 15 115 0.0 12.9 0.00 0.00 0.00 84 993.3
20260510034537 16 100 0.0 12.9 0.00 0.00 0.00 86 993.4
20260510034503 16 100 0.0 12.9 0.00 0.00 0.00 86 993.4
20260510032433 16 100 0.0 12.9 0.00 0.00 0.00 84 993.4
20260510030433 16 144 0.0 12.9 0.00 0.00 0.00 83 993.4
20260510024403 17 97 0.0 12.9 0.00 0.00 0.00 82 993.3
20260510022403 17 113 0.0 12.9 0.00 0.00 0.00 79 993.1
20260510020403 17 181 0.0 12.9 0.00 0.00 0.00 81 992.9
20260510014403 18 197 0.0 12.9 0.00 0.00 0.00 79 992.6
20260510012403 18 180 0.0 12.9 0.00 0.00 0.00 79 992.4
20260510010421 19 20 0.0 12.9 0.00 0.00 0.00 74 992.1
20260510010333 19 20 0.0 12.9 0.00 0.00 0.00 74 992.1
20260510004333 21 20 0.0 12.9 0.00 0.00 0.00 69 991.9
20260510002333 23 208 0.0 12.9 0.00 0.00 0.00 62 991.6
20260510000304 25 130 0.0 12.9 0.00 0.00 0.00 56 991.4
20260509234303 25 76 0.0 12.9 0.00 0.00 0.00 52 991.2
20260509232306 26 128 1.6 12.9 0.00 0.00 0.00 48 991.3